{"data":{"norad_id":68780,"epoch":"2026-09-19T08:58:31.027008Z","epoch_age_seconds":137402,"freshness":"FRESH","line1":"1 68780U 26086Q   26262.37397022  .00012953  00000+0  40268-3 0  9994","line2":"2 68780  97.2853 297.8370 0002975  93.5103 266.6480 15.33456227 23516","mean_motion":15.33456227,"eccentricity":0.0002975,"inclination_deg":97.2853,"raan_deg":297.837,"arg_perigee_deg":93.5103,"mean_anomaly_deg":266.648,"bstar":0.00040268,"rev_number":2351,"period_min":93.905517134791,"perigee_km":463.47378611442,"apogee_km":467.54575594318,"semimajor_km":6843.6467710288,"source":"CELESTRAK","updated_at":"2026-09-20T09:00:44.001034Z"}}